Simultaneous Nadir Overpasses (SNOs) Predictions

Prediction of SNOs between NOAA-20 and NOAA-19 Satellite Orbit:

Table of predicted SNOs for the next 14.0 days since TLE Epoch: 9/27/2019
Index Date (NOAA-20) Time (NOAA-20) Lat,Lon (NOAA-20) SZA (NOAA-20 ) Date (NOAA-19) Time (NOAA-19) Lat,Lon (NOAA-19) SZA (NOAA-19 ) Distance(km) Time Diff (sec)
1 10/03/2019 15:28:20 -79.82, 90.78 94.44 10/03/2019 15:27:06 -79.81, 90.07 94.35 14.15 74
2 10/03/2019 16:19:06 79.85,-102.17 85.63 10/03/2019 16:18:03 79.85,-102.24 85.66 1.61 63
3 10/03/2019 17:09:51 -79.86, 65.10 94.35 10/03/2019 17:09:05 -79.85, 65.10 94.34 0.46 46
4 10/03/2019 18:00:36 79.86,-127.57 85.66 10/03/2019 18:00:03 79.86,-127.52 85.68 1.40 33
5 10/03/2019 18:51:21 -79.86, 39.70 94.32 10/03/2019 18:51:05 -79.87, 39.83 94.32 2.82 16
6 10/03/2019 19:42:06 79.86,-152.97 85.69 10/03/2019 19:42:04 79.86,-153.10 85.71 2.53 2
7 10/03/2019 20:32:51 -79.86, 14.30 94.29 10/03/2019 20:33:06 -79.87, 14.25 94.29 1.10 15
8 10/03/2019 21:23:36 79.86,-178.37 85.72 10/03/2019 21:24:04 79.88,-178.37 85.73 1.72 28
9 10/03/2019 22:14:21 -79.86, -11.09 94.26 10/03/2019 22:15:06 -79.89, -11.02 94.27 2.71 45
10 10/03/2019 23:05:07 79.89, 155.94 85.81 10/03/2019 23:06:05 79.87, 156.05 85.76 3.32 58




NCC Satellite Simultaneous Nadir Overpasses (SNOs) Prediction Service
